Printer-friendly version

IAU Minor Planet Center

Minor Planet Center

MPEC 2004-S12 : 2001 FY

The following Minor Planet Electronic Circular may be linked-to from your own Web pages, but must not otherwise be redistributed electronically.


Read MPEC 2004-S11 Read MPEC 2004-S13


M.P.E.C. 2004-S12                                Issued 2004 Sept. 17, 20:10 UT

     The Minor Planet Electronic Circulars contain information on unusual
         minor planets and routine data on comets.  They are published
   on behalf of Commission 20 of the International Astronomical Union by the
          Minor Planet Center, Smithsonian Astrophysical Observatory,
                          Cambridge, MA 02138, U.S.A.

                  Supported in part by the Brinson Foundation
             Prepared using the Tamkin Foundation Computer Network

                              MPC@CFA.HARVARD.EDU
          URL http://cfa-www.harvard.edu/iau/mpc.html  ISSN 1523-6714

                                    2001 FY

                           Revision to MPEC 2001-F12

Additional Observations:
     K01F00Y  C2004 09 16.43919 00 31 09.87 -05 16 57.0                 ES012F65
     K01F00Y  C2004 09 16.44082 00 31 09.76 -05 16 57.9                 ES012F65
     K01F00Y  C2004 09 16.44222 00 31 09.64 -05 16 58.6                 ES012F65
     K01F00Y HC2004 09 17.30259 00 30 08.45 -05 24 39.9          22.2 V ES012291
     K01F00Y HC2004 09 17.30639 00 30 08.18 -05 24 42.9          22.3 V ES012291
     K01F00Y HC2004 09 17.31016 00 30 07.97 -05 24 43.4          22.4 V ES012291

Observer details:
291 LPL/Spacewatch II.  Observer M. Block.  1.8-m f/2.7 reflector + CCD.
F65 Haleakala-Faulkes Telescope North.  Observers A. Fitzsimmons, S. C. Lowry.
    2.0-m Faulkes Telescope-North + CCD.

First and last observations above in comparison with prediction:
Residuals in seconds of arc, reference and Delta-T
040916 F65 36.3- 15.3-    040917 291 35.0- 14.6-    MPO 57808   +0.020 day

Orbital elements:
2001 FY
Epoch 2004 July 14.0 TT = JDT 2453200.5                 MPC
M  83.75107              (2000.0)            P               Q
n   0.38050050     Peri.  110.30302     -0.74429820     +0.66341340
a   1.8861051      Node   111.34209     -0.63938596     -0.67462132
e   0.3275814      Incl.    4.73151     -0.19288803     -0.32368001
P   2.59           H   19.1           G   0.15           U   2
Residuals in seconds of arc
010316 704  0.6+  0.1+    010321 699  0.9+  0.1-    010511 151  0.2-  0.1-
010316 704  1.0+  0.3-    010321 402  0.1+  0.0     010511 151  0.0   0.1-
010316 704  0.3+  0.2+    010321 402  0.1-  0.0     010512 360  0.1-  0.4-
010316 704  1.1-  0.5+    010321 402  0.1+  0.3-    010512 360  0.0   0.1-
010316 704  1.2+  0.7+    010330 704  0.1+  0.4+    010512 360  0.1-  0.2-
010316 046  0.2+  0.1+    010330 704  0.7+  0.2-    010512 113  0.0   0.0
010316 046  0.1+  0.0     010330 704  0.0   1.2+    010512 113  0.2-  0.1+
010316 046  0.6+  0.1-    010330 704  0.2-  0.1+    010512 113  0.1-  0.1+
010316 046  0.1+  0.1-    010331 711  0.1+  0.1-    010512 113  0.1-  0.0
010316 046  0.3-  0.3+    010331 711  0.1+  0.0     010512 113  0.4-  0.1-
010317 118  2.0-  1.2+    010331 704  0.3-  0.4+    010512 113  0.5-  0.0
010317 118  1.4-  1.4+    010331 704  0.3+  0.6+    010512 113  0.1-  0.0
010317 118  0.5-  0.5+    010331 704  0.3-  0.4+    010512 113  0.3-  0.1-
010317 118  1.0+  1.4+    010331 704  0.2+  0.4-    010512 113  0.5-  0.0
010317 859  1.7-  0.3+    010331 704  0.2+  0.2+    010512 113  0.1-  0.0
010317 859  0.1-  0.2+    010401 157  0.8-  1.3-    010519 118  0.2+  0.1+
010317 859  1.9+  0.2-    010401 046  0.6+  0.1+    010519 118  0.2-  0.2-
010317 649  1.3+  0.3-    010401 157  0.0   0.0     010520 046  0.1+  0.1-
010317 649  1.4+  1.5-    010401 046  0.6+  0.1+    010520 046  0.1+  0.1+
010317 649  1.5+  1.4-    010401 046  0.6+  0.4+    010520 046  0.0   0.2+
010317 649  0.0   0.6-    010401 046  0.0   0.2+    010520 046  0.0   0.1-
010317 649  1.4+  0.0     010402 046  0.2+  0.1-    010521 683  0.5-  0.7+
010317 673  0.6-  1.2+    010402 046  0.2-  0.2+    010521 683  0.1-  0.7-
010317 673  0.5-  1.5+    010402 046  0.2+  0.1-    010521 683  0.3-  0.8-
010318 946  1.5-  0.0     010402 046  0.3+  0.0     010521 118  0.2+  0.3-
010318 946  1.4-  0.4+    010405 413  0.3-  0.0     010521 118  0.2+  0.1-
010318 946 (0.4-  2.1-)   010405 413  0.1-  0.0     010522 699  0.3-  0.1-
010318 704  0.1-  0.1+    010405 413  0.8+  0.3-    010522 699  0.0   0.2-
010318 704  0.2-  0.5-    010405 413  0.2-  0.1+    010522 699  0.0   0.2-
010318 704  0.4-  0.6+    010406 413  0.4-  0.1+    010522 699  0.1+  0.1+
010318 704  0.2+  0.2+    010406 413  0.2-  0.0     010523 704  0.0   1.2-
010318 704  0.2-  0.1-    010406 413  0.3-  0.4+    010523 704  0.3-  0.3+
010318 704  0.9+  0.4+    010413 413  0.1-  0.2-    010523 704  0.2+  0.0
010318 926  0.2+  0.7-    010413 413  0.2-  0.2-    010523 704  0.0   0.1-
010318 704  0.1+  0.7-    010413 413  0.0   0.1-    010523 704  0.4-  0.0
010318 926  0.3+  0.2+    010413 413  0.3-  0.1-    010524 511  0.8+  0.4-
010318 704  0.4-  0.6-    010414 610  0.2-  0.3+    010528 711  0.0   0.0
010318 422  0.6+  0.2+    010414 610  0.1+  0.2+    010528 711  0.3+  0.0
010318 422  0.4+  0.4+    010414 610  0.2+  0.1+    010528 711  0.0   0.0
010318 422  0.2+  0.1-    010416 670  0.4-  0.1+    010529 704  0.1-  0.2-
010318 422  1.0+  0.5+    010416 670  0.3-  0.2+    010529 704  0.3+  0.7+
010319 850  0.5-  0.9-    010423 670 (0.4+  2.5-)   010529 704  0.0   0.7+
010319 850  0.4+  0.4+    010423 670  0.0   0.8+    010529 704  0.4+  0.5+
010319 850  0.3-  0.7-    010426 704  0.2-  1.0+    010529 704  0.5+  0.0
010319 918  1.0-  0.4-    010426 704  1.4+  1.6+    010530 670  1.0+  0.5-
010319 918  0.1+  0.5-    010426 704  0.1+  0.6+    010530 670  0.3-  0.2+
010319 918  0.3+  0.2-    010426 704  0.1-  0.9+    010612 699  0.1+  0.6+
010319 704  0.0   0.1-    010426 704  0.3+  0.1-    010612 699  0.2-  0.2-
010319 645  0.1-  0.2-    010501 118  0.5+  0.5+    010612 699  0.7-  0.0
010319 704  0.4+  0.5+    010501 118  0.1+  0.1+    010612 699  0.5+  0.7-
010319 704  0.3+  0.2-    010501 046  0.4-  0.0     010620 608  0.2+  0.1+
010319 645  0.1-  0.2-    010501 046  0.0   0.1+    010620 608  0.0   0.2-
010319 704  0.4+  0.3+    010501 046  0.1-  0.1-    010620 608  0.1-  0.1+
010319 704  0.6-  0.5+    010501 046  0.4-  0.1+    010620 493  0.0   0.3-
010319 704  0.5+  0.1-    010502 198(12.4+ 45.0-)   010620 493  0.1+  0.1-
010319 704  0.3-  0.4-    010502 118  0.1+  0.4-    040916 F65  0.5-  0.3+
010319 704  0.1-  0.4+    010502 118  0.2+  0.3+    040916 F65  0.3-  0.3+
010319 704  0.8+  0.5+    010511 118  0.1-  0.4-    040916 F65  0.6-  0.3+
010319 704  1.0-  0.2+    010511 118  0.2+  0.3-    040917 291  0.3-  0.5+
010321 699  0.5+  0.1+    010511 118  0.3+  0.3-    040917 291  0.1-  0.5-
010321 699  0.3+  0.1+    010511 151  0.0   0.2+    040917 291  0.9+  1.0+
010321 699  0.0   0.4+    010511 151  0.2-  0.0

Ephemeris:
2001 FY                  a,e,i = 1.89, 0.33, 5                   q = 1.2683
Date    TT    R. A. (2000) Decl.     Delta      r     Elong.  Phase     V
2004 09 12    00 36.28   -04 36.8    1.240    2.217   161.3     8.4    21.9
2004 09 22    00 24.47   -06 05.4    1.249    2.246   171.1     4.0    21.7
2004 10 02    00 12.47   -07 22.7    1.285    2.273   167.9     5.3    21.9
2004 10 12    00 01.70   -08 20.3    1.348    2.299   156.8     9.8    22.2
2004 10 22    23 53.30   -08 53.7    1.435    2.323   145.3    14.1    22.5
2004 11 01    23 47.89   -09 02.6    1.543    2.346   134.3    17.6    22.8
2004 11 11    23 45.60   -08 49.5    1.667    2.367   124.0    20.3    23.1

Gareth V. Williams           (C) Copyright 2004 MPC           M.P.E.C. 2004-S12

Read MPEC 2004-S11 Read MPEC 2004-S13


Our Web policy. Index to the CBAT/MPC/ICQ pages.


Valid HTML 4.01!